[[{"header":{"parameterUnit":"m.s-1","parameterCategory":2,"la1":30.2991,"la2":30.254,"lo1":-89.0895,"lo2":-89.0444,"dy":0.0017,"dx":0.0017,"nx":28,"ny":28,"refTime":"2025-05-26T03:00:00:Z","depth":"0","parameterNumber":2,"parameterNumberName":"U-component_of_CURRENTS"},"data":[0,0,0,0,0,0,0,0,0,0,0,0,0,0,0,0,0,0,0,0,0,0,0,0,0,0,0,0,0,0,0,0,0,0,0,0,0,0,0,0,0,0,0,0,0,0,0,0,0,0,0,0,0,0,0,0,0,0,-0.1799,-0.18,0,-0.1817,-0.1816,-0.1816,-0.1748,-0.1746,-0.1745,-0.1744,-0.169,-0.169,-0.169,0,0,0,0,0,0,0,0,0,0,0,0,0,-0.1704,-0.1705,-0.1799,-0.18,-0.1801,-0.1817,-0.1816,-0.1816,-0.1748,-0.1746,-0.1745,-0.1743,-0.169,-0.169,-0.169,0,0,0,0,0,0,0,0,0,0,0,0,0,-0.1728,-0.1705,-0.1799,-0.1775,-0.1774,-0.1817,-0.1816,-0.1816,-0.1748,-0.1746,-0.1744,-0.1743,-0.169,-0.169,-0.169,-0.1725,0,0,-0.1688,-0.1688,0,0,0,0,0,0,0,0,-0.1726,-0.173,-0.1778,-0.1777,-0.1776,-0.1786,-0.1764,-0.1785,-0.1749,-0.1749,-0.1744,-0.1742,-0.1722,-0.1719,-0.1716,-0.1722,-0.172,-0.1688,-0.1688,-0.1688,-0.1688,0,0,0,0,0,0,0,-0.1725,-0.1729,-0.1797,-0.1779,-0.1778,-0.1764,-0.1764,-0.1767,-0.1738,-0.1749,-0.1746,-0.1762,-0.172,-0.1716,-0.1714,-0.1719,-0.1688,-0.1688,-0.1688,-0.1688,-0.1768,-0.177,0,0,0,0,0,0,-0.1742,-0.1728,-0.1797,-0.1799,-0.1755,-0.1767,-0.1767,-0.1777,-0.174,-0.1735,-0.1764,-0.1759,-0.1718,-0.1714,-0.1712,-0.1749,-0.1688,-0.1688,-0.1687,-0.1765,-0.1768,-0.1771,0,0,0,0,0,0,-0.174,-0.1748,-0.1797,-0.177,-0.1777,-0.1772,-0.1783,-0.1779,-0.1768,-0.1753,-0.1745,-0.1757,-0.1716,-0.1712,-0.1724,-0.1746,-0.1687,-0.1687,-0.1762,-0.1766,-0.1769,-0.1825,0,0,0,0,0,0,-0.1737,-0.1747,-0.1749,-0.1772,-0.1779,-0.1828,-0.1786,-0.1781,-0.1786,-0.1779,-0.1746,-0.1739,-0.1714,-0.1725,-0.1724,-0.1745,-0.1687,-0.1759,-0.1764,-0.1768,-0.1821,-0.183,-0.1839,0,0,0,0,0,-0.1733,-0.175,-0.1749,-0.1757,-0.1786,-0.183,-0.1832,-0.1816,-0.1787,-0.1794,-0.1777,-0.1739,-0.1752,-0.1727,-0.1725,-0.1746,-0.1757,-0.1763,-0.1768,-0.1817,-0.1829,-0.1839,0,0,0,0,0,0,-0.1708,-0.1747,-0.1745,-0.1771,-0.1802,-0.1822,-0.1827,-0.1822,-0.1813,-0.1796,-0.1767,-0.1762,-0.1781,-0.1768,-0.1741,-0.1787,-0.175,-0.1756,-0.1788,-0.1799,-0.1808,-0.1759,-0.1686,0,0,0,0,0,-0.1709,-0.1727,-0.1769,-0.1789,-0.1805,-0.1816,-0.1827,-0.1824,-0.183,-0.1822,-0.1808,-0.1798,-0.1807,-0.1804,-0.1807,-0.1832,-0.1777,-0.1848,-0.1857,-0.1865,-0.1827,-0.177,-0.1769,-0.1788,-0.1788,-0.1788,0,0,-0.1706,-0.173,-0.1739,-0.1785,-0.1798,-0.1834,-0.1814,-0.184,-0.1853,-0.1821,-0.1824,-0.1829,-0.1823,-0.1849,-0.1857,-0.1835,-0.1843,-0.1872,-0.1878,-0.1835,-0.1775,-0.1773,-0.177,-0.1792,-0.1791,-0.179,0,0,-0.1717,-0.1731,-0.1751,-0.1785,-0.1825,-0.1842,-0.1854,-0.1882,-0.187,-0.1899,-0.1878,-0.1892,-0.1908,-0.1903,-0.1903,-0.1968,-0.1895,-0.1984,-0.1982,-0.1929,-0.1925,-0.1921,-0.1886,-0.1878,-0.1985,-0.1986,-0.1986,0,-0.1708,-0.1741,-0.1766,-0.1803,-0.1826,-0.1849,-0.1879,-0.189,-0.1916,-0.1889,-0.1906,-0.1903,-0.1928,-0.1919,-0.1963,-0.1983,-0.1938,-0.1937,-0.1935,-0.1929,-0.1924,-0.1889,-0.1879,-0.1989,-0.1989,-0.1988,-0.1988,0,-0.174,-0.1768,-0.1788,-0.1837,-0.1868,-0.1901,-0.1935,-0.1937,-0.1938,-0.1932,-0.1921,-0.1952,-0.193,-0.1977,-0.1999,-0.1982,-0.196,-0.1952,-0.1893,-0.1924,-0.1888,-0.1876,-0.1994,-0.1993,-0.1992,-0.1991,0,0,-0.1706,-0.179,-0.1795,-0.1805,-0.1884,-0.1899,-0.1929,-0.1932,-0.1884,-0.1929,-0.1858,-0.1949,-0.1926,-0.1927,-0.1952,-0.1941,-0.1926,-0.1939,-0.1935,-0.1879,-0.1805,-0.1744,-0.1726,-0.1902,-0.19,-0.1898,-0.1807,0,-0.1715,-0.1773,-0.182,-0.1858,-0.1883,-0.1911,-0.1916,-0.1915,-0.1903,-0.1842,-0.1853,-0.1819,-0.1917,-0.1897,-0.1908,-0.1875,-0.1892,-0.1951,-0.1803,-0.1798,-0.1718,-0.1708,-0.1612,-0.1517,-0.1796,-0.1794,-0.1792,0,-0.1726,-0.1757,-0.1805,-0.1823,-0.183,-0.1856,-0.1814,-0.1824,-0.1764,-0.1739,-0.1709,-0.169,-0.1674,-0.1759,-0.1724,-0.1744,-0.1796,-0.1804,-0.1799,-0.1696,-0.1713,-0.1526,-0.1485,-0.1523,-0.1774,-0.1775,-0.1777,0,-0.1666,-0.1733,-0.1757,-0.178,-0.182,-0.1807,-0.1812,-0.1778,-0.1735,-0.1653,-0.1594,-0.1551,-0.1511,-0.1527,-0.1579,-0.1631,-0.1517,-0.1583,-0.159,-0.1587,-0.1448,-0.1436,-0.1391,-0.1595,-0.1595,-0.1595,-0.1595,0,-0.1652,-0.1653,-0.1724,-0.1731,-0.169,-0.1749,-0.1678,-0.1659,-0.1606,-0.1521,-0.1531,-0.145,-0.1452,-0.1399,-0.1477,-0.1453,-0.1436,-0.1557,-0.1541,-0.1474,-0.1465,-0.1446,-0.1498,-0.1592,-0.1593,-0.1593,-0.1594,0,-0.1568,-0.1636,-0.1638,-0.1673,-0.1668,-0.1633,-0.1606,-0.1544,-0.1524,-0.141,-0.1379,-0.1324,-0.1242,-0.125,-0.1234,-0.1305,-0.1282,-0.1336,-0.1263,-0.124,-0.1278,-0.1338,-0.1235,-0.12,-0.129,-0.1287,-0.1285,0,-0.1517,-0.153,-0.1564,-0.1549,-0.1561,-0.1526,-0.1486,-0.1484,-0.1426,-0.134,-0.1265,-0.117,-0.1082,-0.1001,-0.1029,-0.1049,-0.1186,-0.1061,-0.117,-0.1228,-0.1283,-0.1344,-0.1328,-0.1033,-0.103,-0.1026,-0.1024,0,-0.1398,-0.1433,-0.1438,-0.1423,-0.14,-0.1354,-0.1314,-0.1257,-0.1237,-0.1156,-0.1037,-0.0962,-0.0878,-0.0795,-0.0828,-0.0877,-0.1011,-0.1,-0.1056,-0.1057,-0.1117,-0.1091,-0.1176,-0.0996,-0.0998,-0.1,-0.1002,-0.1003,-0.1288,-0.1267,-0.1302,-0.1271,-0.1248,-0.119,-0.112,-0.1077,-0.0975,-0.0836,-0.0821,-0.0661,-0.0677,-0.0662,-0.0691,-0.074,-0.0835,-0.0827,-0.089,-0.0944,-0.091,-0.0941,-0.0749,-0.075,-0.0751,-0.0752,-0.0753,0,-0.1151,-0.1163,-0.1139,-0.1116,-0.1066,-0.109,-0.1001,-0.0927,-0.0791,-0.0637,-0.0514,-0.0392,-0.0419,-0.0494,-0.0616,-0.0658,-0.0672,-0.0696,-0.0768,-0.0755,-0.0756,-0.0745,-0.0545,-0.0545,-0.0545,-0.0545,-0.0545,-0.0545,-0.1082,-0.1042,-0.105,-0.0954,-0.0937,-0.0842,-0.0785,-0.068,-0.0552,-0.0314,-0.0145,-0.0022,-0.0206,-0.0585,-0.0732,-0.0704,-0.0752,-0.0697,-0.0773,-0.0811,-0.083,-0.0848,-0.085,-0.0675,-0.0675,-0.0708,-0.0709,-0.0709]},{"header":{"parameterUnit":"m.s-1","parameterCategory":2,"la1":30.2991,"la2":30.254,"lo1":-89.0895,"lo2":-89.0444,"dy":0.0017,"dx":0.0017,"nx":28,"ny":28,"refTime":"2025-05-26T03:00:00:Z","depth":"0","parameterNumber":3,"parameterNumberName":"V-component_of_CURRENTS"},"data":[0,0,0,0,0,0,0,0,0,0,0,0,0,0,0,0,0,0,0,0,0,0,0,0,0,0,0,0,0,0,0,0,0,0,0,0,0,0,0,0,0,0,0,0,0,0,0,0,0,0,0,0,0,0,0,0,0,0,0.0036,0.0037,0,0.02,0.0202,0.0204,0.0339,0.034,0.0341,0.0342,0.0434,0.0436,0.0437,0,0,0,0,0,0,0,0,0,0,0,0,0,-0.0007,-0.0008,0.0035,0.0037,0.0039,0.0199,0.0202,0.0205,0.0339,0.034,0.0341,0.0343,0.0434,0.0435,0.0437,0,0,0,0,0,0,0,0,0,0,0,0,0,0.0073,-0.0008,0.0035,0.0122,0.0131,0.0199,0.0202,0.0205,0.0339,0.034,0.0342,0.0343,0.0433,0.0435,0.0437,0.042,0,0,0.0444,0.0445,0,0,0,0,0,0,0,0,0.0068,0.0075,0.0108,0.0116,0.0126,0.0247,0.0221,0.0272,0.0338,0.0264,0.0342,0.0344,0.0361,0.0369,0.0404,0.0424,0.0428,0.0444,0.0446,0.0447,0.0447,0,0,0,0,0,0,0,0.0062,0.007,0.0105,0.0109,0.0121,0.0206,0.0218,0.0233,0.0304,0.0271,0.028,0.0291,0.0366,0.0401,0.0406,0.043,0.0444,0.0446,0.0448,0.0449,0.0468,0.0468,0,0,0,0,0,0,0.0023,0.0063,0.0099,0.0109,0.0096,0.0204,0.0218,0.021,0.0305,0.0321,0.029,0.0297,0.0397,0.0404,0.041,0.0425,0.0447,0.0449,0.045,0.0469,0.0468,0.0467,0,0,0,0,0,0,0.0022,0.0024,0.0093,0.0088,0.0103,0.0202,0.0193,0.0212,0.0255,0.032,0.0335,0.0312,0.0398,0.0407,0.0424,0.0428,0.045,0.0452,0.047,0.0469,0.0468,0.0435,0,0,0,0,0,0,0.0019,0.0022,0.0011,0.0084,0.0101,0.0126,0.0191,0.0214,0.0257,0.0268,0.0343,0.0354,0.04,0.042,0.0426,0.0432,0.0454,0.0471,0.047,0.0468,0.0437,0.0433,0.0429,0,0,0,0,0,0.0017,-0.0004,0.0009,0.0014,0.0079,0.0125,0.0141,0.0222,0.0256,0.0267,0.0317,0.0352,0.0415,0.0421,0.0428,0.0435,0.0472,0.047,0.0468,0.0439,0.0434,0.0429,0,0,0,0,0,0,-0.001,0.0009,0.0026,0.0015,0.0059,0.0146,0.0163,0.0211,0.0264,0.0267,0.0338,0.0351,0.0367,0.0393,0.0398,0.0433,0.045,0.0449,0.0425,0.042,0.0416,0.0415,0.0455,0,0,0,0,0,-0.0032,-0.0051,-0.0006,-0.0011,-0.0002,0.0075,0.0106,0.015,0.0203,0.0231,0.0284,0.0328,0.0363,0.0385,0.0411,0.0425,0.0451,0.0433,0.0429,0.0425,0.0427,0.0474,0.0475,0.0461,0.0461,0.0461,0,0,-0.0042,-0.0034,-0.0042,-0.0019,0.002,0.0025,0.0099,0.0126,0.0152,0.0224,0.0265,0.0305,0.0358,0.0385,0.0395,0.0412,0.0436,0.0423,0.042,0.0424,0.0472,0.0474,0.0475,0.046,0.046,0.0461,0,0,-0.0076,-0.0072,-0.0102,-0.0085,-0.0053,-0.0011,-0.0012,0.0055,0.0107,0.0133,0.02,0.0249,0.0287,0.0355,0.0386,0.0369,0.0404,0.0365,0.0359,0.0404,0.0407,0.0409,0.042,0.0424,0.0375,0.0375,0.0375,0,-0.0082,-0.012,-0.0095,-0.0118,-0.0103,-0.0039,-0.0051,0.0001,0.0074,0.0121,0.0129,0.0236,0.0282,0.0353,0.0356,0.0365,0.0376,0.0378,0.0401,0.0404,0.0407,0.0419,0.0423,0.0373,0.0373,0.0373,0.0374,0,-0.0142,-0.0167,-0.0181,-0.0197,-0.0177,-0.0179,-0.0123,-0.0082,-0.0028,0.0038,0.011,0.018,0.0257,0.0276,0.0313,0.0365,0.0359,0.0383,0.0418,0.0407,0.0419,0.0424,0.037,0.0371,0.0372,0.0372,0,0,-0.0154,-0.0215,-0.0219,-0.0227,-0.0222,-0.0198,-0.0175,-0.0106,-0.0058,0.0007,0.0072,0.0157,0.0215,0.0253,0.0315,0.0363,0.0393,0.0376,0.0379,0.0393,0.046,0.0486,0.0494,0.0418,0.0419,0.042,0.0452,0,-0.0197,-0.027,-0.0278,-0.0303,-0.0322,-0.0266,-0.0232,-0.0161,-0.0094,-0.0021,0.0083,0.0145,0.0201,0.0236,0.0295,0.0361,0.0408,0.038,0.0463,0.0465,0.0496,0.0502,0.056,0.0596,0.0457,0.0458,0.0459,0,-0.0243,-0.0283,-0.0346,-0.0336,-0.0334,-0.0334,-0.0252,-0.0213,-0.0102,-0.0049,0.0035,0.0101,0.0193,0.0226,0.035,0.0322,0.0389,0.044,0.0443,0.0486,0.0502,0.0589,0.0612,0.075,0.0467,0.0467,0.0466,0,-0.0253,-0.0307,-0.0357,-0.0366,-0.0361,-0.034,-0.0307,-0.0214,-0.0162,-0.0071,-0.0046,0.0074,0.0117,0.0219,0.032,0.0335,0.0426,0.0469,0.0557,0.0558,0.0636,0.0642,0.0815,0.0562,0.0562,0.0562,0.0562,0,-0.0286,-0.0307,-0.0366,-0.0388,-0.0379,-0.0362,-0.0319,-0.026,-0.0197,-0.0149,-0.0062,-0.0029,0.0114,0.0185,0.0291,0.0422,0.041,0.0557,0.0579,0.0621,0.0626,0.0773,0.0813,0.0563,0.0563,0.0562,0.0562,0,-0.0276,-0.0337,-0.0369,-0.0394,-0.0393,-0.0375,-0.0341,-0.0307,-0.0255,-0.0209,-0.0192,-0.0107,-0.0026,0.0102,0.0248,0.0381,0.0595,0.0556,0.0574,0.06,0.0845,0.0879,0.103,0.1125,0.0684,0.0685,0.0686,0,-0.0286,-0.032,-0.0369,-0.0389,-0.0402,-0.0387,-0.0374,-0.0327,-0.0305,-0.0256,-0.0244,-0.0179,-0.013,0.007,0.03,0.0488,0.0605,0.0685,0.0757,0.0873,0.0927,0.0943,0.1015,0.0832,0.0834,0.0836,0.0837,0,-0.0278,-0.0303,-0.0332,-0.0386,-0.0402,-0.0398,-0.0388,-0.0383,-0.0336,-0.0321,-0.0309,-0.0288,-0.0107,0.0128,0.0379,0.0515,0.0804,0.0726,0.0863,0.1074,0.1088,0.1184,0.0764,0.0852,0.085,0.0849,0.0848,0.0848,-0.0256,-0.0273,-0.0336,-0.0367,-0.0391,-0.0406,-0.0388,-0.0386,-0.0367,-0.0313,-0.0347,-0.0266,0.0071,0.0427,0.0549,0.0949,0.0912,0.1118,0.1149,0.1154,0.1264,0.0853,0.0958,0.0957,0.0956,0.0956,0.0955,0,-0.024,-0.0276,-0.0315,-0.0362,-0.0388,-0.0399,-0.0393,-0.0363,-0.0341,-0.0293,-0.0277,0.0042,0.0379,0.0704,0.1219,0.1397,0.1443,0.148,0.1545,0.1602,0.1269,0.1296,0.1459,0.1459,0.1458,0.1458,0.1458,0.1458,-0.024,-0.0279,-0.0309,-0.0357,-0.0384,-0.0392,-0.0385,-0.0327,-0.0268,-0.0108,0.0057,0.0157,0.0635,0.1291,0.1733,0.1773,0.1932,0.1887,0.1965,0.1761,0.173,0.1701,0.1742,0.1994,0.1995,0.2324,0.2327,0.233]}],[{"header":{"parameterUnit":"m.s-1","parameterCategory":2,"la1":30.2991,"la2":30.254,"lo1":-89.0895,"lo2":-89.0444,"dy":0.0017,"dx":0.0017,"nx":28,"ny":28,"refTime":"2025-05-26T03:00:00:Z","depth":"2","parameterNumber":2,"parameterNumberName":"U-component_of_CURRENTS"},"data":[0,0,0,0,0,0,0,0,0,0,0,0,0,0,0,0,0,0,0,0,0,0,0,0,0,0,0,0,0,0,0,0,0,0,0,0,0,0,0,0,0,0,0,0,0,0,0,0,0,0,0,0,0,0,0,0,0,0,-0.1788,-0.1789,0,-0.1864,-0.1865,-0.1866,-0.1875,-0.1874,-0.1873,-0.1872,-0.2143,-0.2151,-0.2159,0,0,0,0,0,0,0,0,0,0,0,0,0,-0.1707,-0.1708,-0.1788,-0.1789,-0.179,-0.1864,-0.1865,-0.1866,-0.1875,-0.1874,-0.1873,-0.1872,-0.214,-0.215,-0.216,0,0,0,0,0,0,0,0,0,0,0,0,0,-0.176,-0.1709,-0.1788,-0.1801,-0.1803,-0.1864,-0.1865,-0.1867,-0.1875,-0.1874,-0.1872,-0.1871,-0.2137,-0.2149,-0.2161,-0.2264,0,0,-0.2198,-0.2203,0,0,0,0,0,0,0,0,-0.1757,-0.1763,-0.1799,-0.1801,-0.1803,-0.1857,-0.1936,-0.2009,-0.1876,-0.185,-0.1872,-0.187,-0.2066,-0.2083,-0.2101,-0.2277,-0.2288,-0.2199,-0.2207,-0.2212,-0.2215,0,0,0,0,0,0,0,-0.1753,-0.1761,-0.182,-0.18,-0.1802,-0.1823,-0.1829,-0.1949,-0.197,-0.1852,-0.1852,-0.1858,-0.2068,-0.2089,-0.2108,-0.2292,-0.2199,-0.221,-0.2217,-0.2222,-0.2498,-0.2498,0,0,0,0,0,0,-0.1739,-0.1757,-0.1818,-0.1822,-0.1774,-0.1825,-0.1832,-0.1842,-0.1964,-0.1979,-0.1859,-0.1858,-0.2069,-0.2093,-0.2117,-0.224,-0.2212,-0.2223,-0.223,-0.2498,-0.2498,-0.2498,0,0,0,0,0,0,-0.1737,-0.1744,-0.1815,-0.1789,-0.1799,-0.1828,-0.184,-0.1845,-0.1858,-0.1967,-0.1986,-0.1866,-0.2068,-0.21,-0.2276,-0.2251,-0.2229,-0.224,-0.2498,-0.2498,-0.2498,-0.2492,0,0,0,0,0,0,-0.1735,-0.1743,-0.1746,-0.1789,-0.18,-0.1851,-0.1841,-0.1847,-0.1863,-0.1862,-0.1981,-0.2004,-0.207,-0.2258,-0.2288,-0.2267,-0.2249,-0.2498,-0.2498,-0.2498,-0.2492,-0.2491,-0.2491,0,0,0,0,0,-0.1732,-0.1747,-0.1746,-0.1753,-0.1804,-0.1852,-0.186,-0.1876,-0.1865,-0.1881,-0.1998,-0.1999,-0.2274,-0.2273,-0.2307,-0.2288,-0.2498,-0.2498,-0.2498,-0.2492,-0.2491,-0.2491,0,0,0,0,0,0,-0.1718,-0.1751,-0.175,-0.1774,-0.1807,-0.1852,-0.1868,-0.1876,-0.1972,-0.1982,-0.2076,-0.2112,-0.2224,-0.2276,-0.227,-0.2358,-0.2356,-0.2363,-0.2338,-0.2339,-0.2339,-0.2313,-0.2259,0,0,0,0,0,-0.1714,-0.173,-0.1767,-0.1785,-0.18,-0.1831,-0.185,-0.1864,-0.1948,-0.1982,-0.207,-0.2159,-0.2251,-0.2317,-0.2402,-0.2514,-0.2492,-0.2495,-0.2495,-0.2495,-0.2493,-0.2448,-0.2443,-0.2499,-0.2499,-0.2499,0,0,-0.1711,-0.1732,-0.174,-0.1782,-0.1806,-0.1843,-0.184,-0.1873,-0.1904,-0.2009,-0.2103,-0.2181,-0.2281,-0.2382,-0.2429,-0.2431,-0.2467,-0.2495,-0.2495,-0.2493,-0.2448,-0.2442,-0.2437,-0.2499,-0.2499,-0.2499,0,0,-0.1723,-0.1735,-0.1753,-0.1785,-0.1823,-0.1849,-0.1855,-0.1909,-0.1929,-0.2058,-0.21,-0.2192,-0.2352,-0.24,-0.245,-0.2507,-0.2464,-0.2489,-0.2488,-0.2445,-0.244,-0.2435,-0.2396,-0.2388,-0.2493,-0.2493,-0.2493,0,-0.1716,-0.1745,-0.1768,-0.1802,-0.1823,-0.1849,-0.1879,-0.1917,-0.2023,-0.2054,-0.2088,-0.2264,-0.2353,-0.2441,-0.2456,-0.2504,-0.2468,-0.2489,-0.2443,-0.2438,-0.2433,-0.2394,-0.2385,-0.2492,-0.2492,-0.2493,-0.2493,0,-0.1745,-0.1771,-0.1789,-0.1833,-0.1864,-0.1896,-0.1944,-0.1982,-0.2021,-0.2062,-0.2156,-0.2286,-0.238,-0.2392,-0.2473,-0.2461,-0.2443,-0.2442,-0.244,-0.2426,-0.2387,-0.2378,-0.2492,-0.2492,-0.2492,-0.2492,0,0,-0.1721,-0.1791,-0.1795,-0.1815,-0.1879,-0.1905,-0.196,-0.2011,-0.2041,-0.2128,-0.2179,-0.2314,-0.2344,-0.2399,-0.2452,-0.2435,-0.239,-0.2428,-0.2426,-0.2384,-0.228,-0.2173,-0.2153,-0.2366,-0.2364,-0.2363,-0.2266,0,-0.1731,-0.178,-0.182,-0.1868,-0.1894,-0.1939,-0.1988,-0.2039,-0.21,-0.2166,-0.2233,-0.2326,-0.2351,-0.2411,-0.2389,-0.2427,-0.2364,-0.2416,-0.2306,-0.2303,-0.2204,-0.2138,-0.2018,-0.1912,-0.2256,-0.2255,-0.2254,0,-0.1742,-0.177,-0.181,-0.1872,-0.1887,-0.1925,-0.1983,-0.2034,-0.2119,-0.2176,-0.2242,-0.2312,-0.2371,-0.2366,-0.2343,-0.2371,-0.2305,-0.2291,-0.2286,-0.2181,-0.2177,-0.1983,-0.1881,-0.2238,-0.2239,-0.224,-0.2241,0,-0.1692,-0.1763,-0.1783,-0.1807,-0.1886,-0.1908,-0.1948,-0.2028,-0.2093,-0.2177,-0.2256,-0.2297,-0.2372,-0.2298,-0.2289,-0.2315,-0.2207,-0.2243,-0.2054,-0.2048,-0.1922,-0.1905,-0.2118,-0.2119,-0.2119,-0.2119,-0.2119,0,-0.1681,-0.1706,-0.176,-0.1773,-0.1827,-0.1869,-0.1943,-0.1996,-0.2091,-0.2169,-0.225,-0.2306,-0.2352,-0.2324,-0.2258,-0.2124,-0.2165,-0.2027,-0.2,-0.1916,-0.19,-0.2174,-0.2181,-0.2115,-0.2116,-0.2117,-0.2117,0,-0.1648,-0.1678,-0.1711,-0.1769,-0.1812,-0.1837,-0.1973,-0.2019,-0.2105,-0.2211,-0.2252,-0.2339,-0.2292,-0.2265,-0.2173,-0.2102,-0.1977,-0.1878,-0.1781,-0.1742,-0.1861,-0.187,-0.1711,-0.1706,-0.1702,-0.1699,-0.1696,0,-0.1655,-0.1656,-0.1713,-0.1739,-0.1775,-0.1849,-0.1917,-0.2026,-0.2084,-0.2204,-0.2239,-0.2254,-0.2209,-0.2042,-0.19,-0.1719,-0.1792,-0.1516,-0.1541,-0.1821,-0.1812,-0.1828,-0.1842,-0.1381,-0.1376,-0.1372,-0.1368,0,-0.1656,-0.165,-0.1669,-0.1707,-0.1764,-0.1854,-0.1941,-0.1988,-0.2095,-0.2139,-0.2123,-0.2084,-0.1974,-0.1745,-0.1547,-0.1431,-0.156,-0.1422,-0.1708,-0.1501,-0.1501,-0.1495,-0.1522,-0.133,-0.1334,-0.1336,-0.1338,-0.134,-0.1654,-0.1652,-0.1636,-0.1681,-0.173,-0.1762,-0.1793,-0.1836,-0.1853,-0.1842,-0.1914,-0.1795,-0.1765,-0.1388,-0.1222,-0.1107,-0.1223,-0.1192,-0.1209,-0.123,-0.1207,-0.1198,-0.0967,-0.0969,-0.097,-0.0972,-0.0973,0,-0.1617,-0.16,-0.1621,-0.1635,-0.1626,-0.1683,-0.1744,-0.169,-0.1594,-0.1608,-0.1545,-0.1362,-0.1174,-0.1124,-0.087,-0.0788,-0.0823,-0.0767,-0.0839,-0.0876,-0.0909,-0.0875,-0.0544,-0.0543,-0.0542,-0.0541,0,0,-0.1582,-0.1556,-0.1556,-0.1511,-0.151,-0.1454,-0.1434,-0.1326,-0.1283,-0.112,-0.1075,-0.1164,-0.1145,-0.0891,-0.0778,-0.0625,-0.076,-0.0587,-0.0933,-0.106,-0.1093,-0.1149,-0.1135,0,0,0,0,0]},{"header":{"parameterUnit":"m.s-1","parameterCategory":2,"la1":30.2991,"la2":30.254,"lo1":-89.0895,"lo2":-89.0444,"dy":0.0017,"dx":0.0017,"nx":28,"ny":28,"refTime":"2025-05-26T03:00:00:Z","depth":"2","parameterNumber":3,"parameterNumberName":"V-component_of_CURRENTS"},"data":[0,0,0,0,0,0,0,0,0,0,0,0,0,0,0,0,0,0,0,0,0,0,0,0,0,0,0,0,0,0,0,0,0,0,0,0,0,0,0,0,0,0,0,0,0,0,0,0,0,0,0,0,0,0,0,0,0,0,-0.0096,-0.0096,0,-0.0097,-0.0098,-0.0098,-0.0092,-0.0092,-0.0091,-0.009,0.0165,0.0171,0.0178,0,0,0,0,0,0,0,0,0,0,0,0,0,-0.0091,-0.0092,-0.0096,-0.0096,-0.0095,-0.0097,-0.0098,-0.0098,-0.0092,-0.0091,-0.0091,-0.009,0.0163,0.0171,0.0178,0,0,0,0,0,0,0,0,0,0,0,0,0,-0.0097,-0.0092,-0.0096,-0.009,-0.0089,-0.0097,-0.0098,-0.0098,-0.0092,-0.0091,-0.0091,-0.009,0.0161,0.017,0.0179,0.0221,0,0,0.0208,0.0212,0,0,0,0,0,0,0,0,-0.0097,-0.0098,-0.0091,-0.009,-0.0089,-0.009,-0.0002,0.0023,-0.0093,-0.0095,-0.009,-0.009,0.0106,0.012,0.0108,0.0233,0.0244,0.0209,0.0215,0.0219,0.0222,0,0,0,0,0,0,0,-0.0096,-0.0098,-0.0101,-0.009,-0.0089,-0.0087,-0.0088,0.0001,0.0003,-0.0095,-0.0093,-0.0088,0.0108,0.0099,0.0115,0.0248,0.0209,0.0217,0.0223,0.0227,0.0448,0.0448,0,0,0,0,0,0,-0.0089,-0.0097,-0.01,-0.01,-0.0086,-0.0088,-0.0088,-0.0094,-0.0004,0.0009,-0.0088,-0.0087,0.0082,0.0104,0.0125,0.0211,0.0219,0.0228,0.0233,0.0448,0.0448,0.0448,0,0,0,0,0,0,-0.0089,-0.009,-0.01,-0.0095,-0.0095,-0.0088,-0.0095,-0.0094,-0.0101,-0.0001,0.0017,-0.0095,0.0084,0.0112,0.0226,0.022,0.0232,0.024,0.0447,0.0448,0.0448,0.0365,0,0,0,0,0,0,-0.0089,-0.009,-0.0098,-0.0095,-0.0095,-0.0117,-0.0095,-0.0095,-0.0097,-0.0096,0.0,0.0023,0.0086,0.0211,0.0235,0.0234,0.0248,0.0447,0.0447,0.0448,0.0368,0.0363,0.0359,0,0,0,0,0,-0.0089,-0.0108,-0.0099,-0.0099,-0.0105,-0.0118,-0.0119,-0.0113,-0.0098,-0.0114,-0.002,0.002,0.0229,0.022,0.0248,0.0249,0.0447,0.0447,0.0448,0.037,0.0364,0.0359,0,0,0,0,0,0,-0.0111,-0.0108,-0.0098,-0.0114,-0.0117,-0.0115,-0.0124,-0.0117,-0.0067,-0.0044,0.0047,0.0077,0.0166,0.0225,0.0212,0.0311,0.0335,0.0341,0.0267,0.0262,0.0257,0.0215,0.0256,0,0,0,0,0,-0.0117,-0.0129,-0.0124,-0.0137,-0.0137,-0.013,-0.0134,-0.0127,-0.0081,-0.0063,0.0001,0.0092,0.0185,0.0239,0.0317,0.0391,0.0425,0.0401,0.0397,0.0392,0.0376,0.0432,0.043,0.0449,0.0449,0.0449,0,0,-0.0126,-0.0126,-0.0132,-0.0141,-0.0139,-0.0157,-0.0132,-0.0138,-0.015,-0.0032,-0.0013,0.0085,0.0202,0.0274,0.0317,0.0328,0.0405,0.0393,0.0388,0.0375,0.0432,0.043,0.0428,0.045,0.045,0.045,0,0,-0.0157,-0.0151,-0.0175,-0.0181,-0.0178,-0.0175,-0.0177,-0.0174,-0.0172,-0.0128,-0.0041,0.006,0.0166,0.0251,0.0313,0.0335,0.0378,0.0348,0.0297,0.0351,0.035,0.0349,0.0382,0.0384,0.0345,0.0345,0.0345,0,-0.0168,-0.0197,-0.0184,-0.0209,-0.0215,-0.0185,-0.0212,-0.0211,-0.0173,-0.0159,-0.013,0.0037,0.0151,0.0255,0.0269,0.0324,0.0348,0.0309,0.0343,0.0343,0.0343,0.0378,0.0382,0.0341,0.0342,0.0342,0.0342,0,-0.0219,-0.0241,-0.0254,-0.0274,-0.0281,-0.0296,-0.0285,-0.029,-0.0267,-0.0251,-0.0171,-0.0028,0.0069,0.0123,0.0218,0.0278,0.029,0.0329,0.0349,0.0336,0.0374,0.0379,0.0336,0.0337,0.0338,0.0339,0,0,-0.025,-0.0285,-0.0289,-0.0314,-0.0314,-0.033,-0.0341,-0.0345,-0.0348,-0.0303,-0.0286,-0.0121,-0.0058,0.0018,0.0136,0.0203,0.0256,0.0261,0.0266,0.0279,0.0349,0.0374,0.0383,0.0291,0.0291,0.0292,0.0371,0,-0.0295,-0.0355,-0.0356,-0.041,-0.044,-0.0419,-0.0437,-0.0427,-0.0398,-0.0376,-0.0253,-0.0177,-0.0098,-0.0022,0.0046,0.0234,0.0267,0.0229,0.0373,0.0377,0.039,0.039,0.0384,0.0455,0.0377,0.0378,0.0378,0,-0.0349,-0.0382,-0.0441,-0.0485,-0.0495,-0.0517,-0.0527,-0.0539,-0.049,-0.046,-0.0388,-0.0294,-0.0154,-0.0095,0.0112,0.008,0.0185,0.0298,0.0304,0.0357,0.0413,0.0461,0.0469,0.0388,0.0387,0.0387,0.0386,0,-0.0387,-0.0446,-0.0494,-0.0509,-0.0546,-0.0567,-0.0582,-0.0561,-0.057,-0.0503,-0.0472,-0.0346,-0.023,-0.0108,0.0123,0.0117,0.0336,0.0361,0.0453,0.0456,0.0495,0.05,0.0442,0.0442,0.0442,0.0442,0.0441,0,-0.0441,-0.0489,-0.052,-0.0551,-0.0618,-0.0613,-0.066,-0.0658,-0.0624,-0.0612,-0.0514,-0.0439,-0.0226,-0.007,0.0086,0.0298,0.0296,0.0436,0.048,0.0467,0.0468,0.0448,0.0447,0.0444,0.0444,0.0443,0.0443,0,-0.0494,-0.0508,-0.058,-0.0623,-0.0644,-0.0692,-0.0735,-0.0754,-0.071,-0.068,-0.0655,-0.0484,-0.0267,-0.0079,0.0184,0.0282,0.0469,0.0524,0.0485,0.0523,0.0548,0.0542,0.062,0.0622,0.0623,0.0624,0.0625,0,-0.0531,-0.0567,-0.064,-0.0677,-0.0706,-0.0768,-0.0805,-0.0807,-0.0814,-0.0693,-0.0669,-0.0458,-0.0269,0.0094,0.0295,0.0519,0.0522,0.0617,0.0606,0.0532,0.0567,0.056,0.0553,0.0625,0.0626,0.0627,0.0627,0,-0.0597,-0.0615,-0.0664,-0.0738,-0.0793,-0.087,-0.0913,-0.0937,-0.0899,-0.0835,-0.0672,-0.0491,-0.0137,0.0161,0.0434,0.0558,0.0581,0.0637,0.0595,0.0576,0.0542,0.0575,0.0567,0.0633,0.0633,0.0632,0.0632,0.0632,-0.0634,-0.0684,-0.0723,-0.0805,-0.0861,-0.0933,-0.0985,-0.099,-0.0977,-0.0849,-0.0663,-0.035,-0.0066,0.0368,0.0526,0.0641,0.0653,0.0698,0.0694,0.0689,0.0671,0.0641,0.0746,0.0746,0.0746,0.0746,0.0746,0,-0.0672,-0.0713,-0.0781,-0.0871,-0.0936,-0.0947,-0.1021,-0.1026,-0.0988,-0.0807,-0.0602,-0.0221,0.013,0.0386,0.0584,0.0714,0.0688,0.0725,0.0677,0.0673,0.0668,0.0646,0.0716,0.0716,0.0716,0.0715,0,0,-0.069,-0.0758,-0.0801,-0.0909,-0.0949,-0.1012,-0.1043,-0.1011,-0.0903,-0.072,-0.0486,-0.0141,0.0212,0.0342,0.0511,0.061,0.0588,0.0608,0.0628,0.0547,0.0539,0.0663,0.0625,0,0,0,0,0]}],[{"header":{"parameterUnit":"m.s-1","parameterCategory":2,"la1":30.2991,"la2":30.254,"lo1":-89.0895,"lo2":-89.0444,"dy":0.0017,"dx":0.0017,"nx":28,"ny":28,"refTime":"2025-05-26T03:00:00:Z","depth":"4","parameterNumber":2,"parameterNumberName":"U-component_of_CURRENTS"},"data":[0,0,0,0,0,0,0,0,0,0,0,0,0,0,0,0,0,0,0,0,0,0,0,0,0,0,0,0,0,0,0,0,0,0,0,0,0,0,0,0,0,0,0,0,0,0,0,0,0,0,0,0,0,0,0,0,0,0,-0.1372,-0.1372,0,-0.1451,-0.1452,-0.1453,-0.1478,-0.1478,-0.1477,-0.1477,-0.1511,-0.1512,-0.1514,0,0,0,0,0,0,0,0,0,0,0,0,0,-0.128,-0.1281,-0.1372,-0.1372,-0.1373,-0.1451,-0.1452,-0.1454,-0.1478,-0.1478,-0.1477,-0.1477,-0.1511,-0.1512,-0.1514,0,0,0,0,0,0,0,0,0,0,0,0,0,-0.1336,-0.1282,-0.1371,-0.1395,-0.1397,-0.1451,-0.1452,-0.1454,-0.1478,-0.1478,-0.1477,-0.1476,-0.151,-0.1512,-0.1514,-0.154,0,0,-0.152,-0.1521,0,0,0,0,0,0,0,0,-0.1333,-0.134,-0.139,-0.1393,-0.1396,-0.1454,-0.1433,-0.148,-0.1478,-0.1448,-0.1477,-0.1476,-0.1488,-0.1491,-0.151,-0.1541,-0.1543,-0.152,-0.1521,-0.1522,-0.1523,0,0,0,0,0,0,0,-0.1329,-0.1337,-0.1404,-0.1391,-0.1395,-0.1415,-0.1422,-0.1442,-0.147,-0.1451,-0.1453,-0.1461,-0.1489,-0.1508,-0.151,-0.1543,-0.152,-0.1522,-0.1523,-0.1524,-0.1615,-0.1616,0,0,0,0,0,0,-0.1317,-0.1333,-0.1401,-0.1406,-0.1362,-0.1417,-0.1424,-0.1436,-0.1471,-0.1476,-0.1461,-0.1462,-0.1505,-0.1508,-0.1512,-0.1567,-0.1522,-0.1524,-0.1525,-0.1614,-0.1615,-0.1617,0,0,0,0,0,0,-0.1315,-0.1322,-0.1398,-0.137,-0.1381,-0.1418,-0.1432,-0.1438,-0.1473,-0.148,-0.1483,-0.1491,-0.1504,-0.1509,-0.1547,-0.1567,-0.1525,-0.1527,-0.1612,-0.1614,-0.1616,-0.1662,0,0,0,0,0,0,-0.1312,-0.1321,-0.1338,-0.137,-0.1382,-0.144,-0.1433,-0.144,-0.1477,-0.1479,-0.1506,-0.1507,-0.1504,-0.1545,-0.1549,-0.1569,-0.1528,-0.1611,-0.1613,-0.1615,-0.1659,-0.1665,-0.167,0,0,0,0,0,-0.1308,-0.133,-0.1338,-0.1347,-0.14,-0.1441,-0.1451,-0.1474,-0.148,-0.1502,-0.1521,-0.1507,-0.1562,-0.1548,-0.1553,-0.1573,-0.161,-0.1613,-0.1615,-0.1656,-0.1664,-0.167,0,0,0,0,0,0,-0.1299,-0.1336,-0.1345,-0.1377,-0.1411,-0.1445,-0.1472,-0.1489,-0.1525,-0.1529,-0.1532,-0.1536,-0.1571,-0.1572,-0.1557,-0.1606,-0.1581,-0.1584,-0.161,-0.1617,-0.1623,-0.163,-0.153,0,0,0,0,0,-0.1305,-0.1332,-0.1366,-0.1394,-0.1412,-0.1447,-0.1472,-0.149,-0.1519,-0.1536,-0.1557,-0.1574,-0.1586,-0.1602,-0.1614,-0.1653,-0.1638,-0.1667,-0.1673,-0.1678,-0.1688,-0.1693,-0.17,-0.1626,-0.1626,-0.1626,0,0,-0.1311,-0.1333,-0.135,-0.1395,-0.1424,-0.146,-0.1461,-0.1505,-0.1538,-0.1533,-0.1592,-0.1597,-0.16,-0.1635,-0.1651,-0.1641,-0.1687,-0.1681,-0.1685,-0.1693,-0.1696,-0.1704,-0.171,-0.1628,-0.1627,-0.1627,0,0,-0.1328,-0.1356,-0.1383,-0.1415,-0.1461,-0.1484,-0.15,-0.155,-0.1575,-0.1628,-0.1624,-0.165,-0.1685,-0.1691,-0.1694,-0.1744,-0.1713,-0.1743,-0.1786,-0.1791,-0.1797,-0.1803,-0.1772,-0.1774,-0.1751,-0.1752,-0.1752,0,-0.1333,-0.1368,-0.1398,-0.1434,-0.146,-0.1496,-0.153,-0.1568,-0.1626,-0.1648,-0.1651,-0.1706,-0.1711,-0.1742,-0.1757,-0.1758,-0.1743,-0.1758,-0.1798,-0.1803,-0.1808,-0.1776,-0.1777,-0.1754,-0.1754,-0.1754,-0.1753,0,-0.1365,-0.1403,-0.1424,-0.1476,-0.1512,-0.1549,-0.1596,-0.164,-0.1673,-0.1704,-0.1755,-0.1773,-0.1801,-0.1805,-0.1799,-0.1834,-0.1804,-0.1799,-0.1778,-0.1818,-0.1781,-0.1782,-0.1758,-0.1757,-0.1756,-0.1755,0,0,-0.1339,-0.1427,-0.1437,-0.1463,-0.1535,-0.1561,-0.1624,-0.1679,-0.1717,-0.1776,-0.182,-0.1856,-0.1869,-0.1874,-0.1872,-0.1887,-0.1898,-0.1864,-0.1863,-0.1829,-0.1884,-0.1738,-0.1724,-0.1899,-0.19,-0.1901,-0.1837,0,-0.1351,-0.1413,-0.146,-0.152,-0.1548,-0.1604,-0.1658,-0.1715,-0.1765,-0.1822,-0.1852,-0.1892,-0.1893,-0.1906,-0.1926,-0.1914,-0.1906,-0.1914,-0.1855,-0.1853,-0.1715,-0.1723,-0.1904,-0.1838,-0.1838,-0.1838,-0.1838,0,-0.1355,-0.1394,-0.1453,-0.1529,-0.1548,-0.1594,-0.1669,-0.1723,-0.1807,-0.1848,-0.1903,-0.1929,-0.1974,-0.1958,-0.1969,-0.1974,-0.1931,-0.1913,-0.191,-0.1761,-0.1709,-0.1796,-0.1839,-0.1839,-0.1839,-0.1839,-0.1839,0,-0.1294,-0.1384,-0.1426,-0.1455,-0.1551,-0.1586,-0.1637,-0.1725,-0.177,-0.1862,-0.1896,-0.1963,-0.1982,-0.1983,-0.196,-0.1966,-0.1944,-0.1941,-0.176,-0.1748,-0.1879,-0.1875,-0.1918,-0.1918,-0.1918,-0.1918,-0.1918,0,-0.1266,-0.1301,-0.1403,-0.1423,-0.1471,-0.1551,-0.1612,-0.1676,-0.1767,-0.1809,-0.1899,-0.1926,-0.199,-0.1989,-0.1966,-0.1862,-0.1944,-0.176,-0.1725,-0.1897,-0.1895,-0.1878,-0.1874,-0.1916,-0.1916,-0.1917,-0.1917,0,-0.1189,-0.1263,-0.1311,-0.1411,-0.1443,-0.1472,-0.1581,-0.1622,-0.172,-0.1774,-0.1801,-0.1898,-0.1893,-0.1916,-0.19,-0.1833,-0.1772,-0.1699,-0.1862,-0.1838,-0.1568,-0.1568,-0.1498,-0.1493,-0.1488,-0.1484,-0.1481,0,-0.1155,-0.1175,-0.1279,-0.1304,-0.1351,-0.1415,-0.146,-0.1578,-0.1619,-0.1735,-0.174,-0.1778,-0.1818,-0.1686,-0.1728,-0.1654,-0.1622,-0.1573,-0.1591,-0.1554,-0.1528,-0.1535,-0.1541,-0.1473,-0.1472,-0.1471,-0.147,0,-0.1077,-0.1128,-0.1167,-0.1219,-0.1266,-0.1317,-0.1385,-0.1402,-0.1526,-0.1628,-0.163,-0.1618,-0.1593,-0.1587,-0.1524,-0.148,-0.1615,-0.1523,-0.1533,-0.1549,-0.1522,-0.1503,-0.1514,-0.1453,-0.1455,-0.1457,-0.1458,0,-0.1019,-0.1026,-0.1086,-0.1118,-0.1175,-0.1193,-0.1249,-0.1289,-0.1342,-0.1473,-0.1465,-0.151,-0.1583,-0.1491,-0.145,-0.1386,-0.1357,-0.1309,-0.133,-0.1348,-0.1327,-0.1272,-0.1088,0,0,0,0,0,-0.0954,-0.0955,-0.0981,-0.1012,-0.1063,-0.1094,-0.119,-0.1253,-0.1367,-0.1323,-0.1392,-0.1366,-0.1311,-0.1341,-0.1235,-0.1353,-0.1351,-0.1222,-0.1307,-0.1362,-0.1381,-0.1369,0,0,0,0,0,0,-0.0912,-0.0936,-0.0945,-0.0914,-0.0912,-0.0957,-0.1011,-0.1093,-0.1084,-0.1202,-0.1183,-0.126,-0.1229,-0.1338,-0.12,-0.12,-0.1217,-0.125,-0.1245,-0.1351,-0.1368,-0.1384,-0.1378,0,0,0,0,0]},{"header":{"parameterUnit":"m.s-1","parameterCategory":2,"la1":30.2991,"la2":30.254,"lo1":-89.0895,"lo2":-89.0444,"dy":0.0017,"dx":0.0017,"nx":28,"ny":28,"refTime":"2025-05-26T03:00:00:Z","depth":"4","parameterNumber":3,"parameterNumberName":"V-component_of_CURRENTS"},"data":[0,0,0,0,0,0,0,0,0,0,0,0,0,0,0,0,0,0,0,0,0,0,0,0,0,0,0,0,0,0,0,0,0,0,0,0,0,0,0,0,0,0,0,0,0,0,0,0,0,0,0,0,0,0,0,0,0,0,-0.0092,-0.0092,0,-0.0093,-0.0093,-0.0093,-0.0084,-0.0084,-0.0083,-0.0083,-0.0001,0.0001,0.0003,0,0,0,0,0,0,0,0,0,0,0,0,0,-0.0083,-0.0083,-0.0092,-0.0092,-0.0092,-0.0093,-0.0093,-0.0093,-0.0084,-0.0084,-0.0083,-0.0083,-0.0002,0.0,0.0003,0,0,0,0,0,0,0,0,0,0,0,0,0,-0.0086,-0.0083,-0.0092,-0.0087,-0.0086,-0.0093,-0.0093,-0.0093,-0.0084,-0.0084,-0.0083,-0.0083,-0.0002,0.0,0.0003,0.0009,0,0,0.0011,0.0013,0,0,0,0,0,0,0,0,-0.0086,-0.0087,-0.0088,-0.0087,-0.0086,-0.0087,-0.006,-0.0055,-0.0084,-0.0086,-0.0083,-0.0082,-0.0022,-0.0017,-0.0022,0.0013,0.0017,0.0012,0.0013,0.0015,0.0015,0,0,0,0,0,0,0,-0.0086,-0.0087,-0.0094,-0.0088,-0.0087,-0.0084,-0.0084,-0.0059,-0.0056,-0.0086,-0.0085,-0.0083,-0.0021,-0.0024,-0.0019,0.0018,0.0012,0.0014,0.0016,0.0017,0.0065,0.0065,0,0,0,0,0,0,-0.0084,-0.0087,-0.0094,-0.0094,-0.0084,-0.0085,-0.0085,-0.0088,-0.0058,-0.0054,-0.0084,-0.0083,-0.0029,-0.0023,-0.0016,-0.0013,0.0015,0.0017,0.0019,0.0065,0.0065,0.0064,0,0,0,0,0,0,-0.0084,-0.0085,-0.0094,-0.0089,-0.009,-0.0085,-0.0089,-0.0088,-0.0091,-0.0058,-0.0051,-0.0086,-0.0029,-0.002,0.0005,-0.0009,0.0018,0.0021,0.0066,0.0065,0.0065,-0.0001,0,0,0,0,0,0,-0.0084,-0.0085,-0.0091,-0.0089,-0.009,-0.0106,-0.009,-0.0089,-0.009,-0.0089,-0.0057,-0.005,-0.0028,0.0,0.0008,-0.0004,0.0023,0.0066,0.0066,0.0065,0.0002,-0.0004,-0.0008,0,0,0,0,0,-0.0084,-0.0098,-0.0092,-0.0092,-0.0097,-0.0107,-0.0108,-0.0103,-0.0091,-0.0101,-0.0073,-0.005,0.0001,0.0002,0.0011,-0.0001,0.0067,0.0066,0.0065,0.0004,-0.0003,-0.0008,0,0,0,0,0,0,-0.0099,-0.0098,-0.0091,-0.0104,-0.0107,-0.0105,-0.0112,-0.0105,-0.0094,-0.0085,-0.0052,-0.0043,-0.0029,-0.0002,-0.0002,0.0011,0.0036,0.0037,-0.0013,-0.0019,-0.0024,-0.0026,0.0025,0,0,0,0,0,-0.0104,-0.0112,-0.011,-0.012,-0.0121,-0.0115,-0.0118,-0.0113,-0.0101,-0.0097,-0.0076,-0.0048,-0.0027,-0.0013,0.0008,0.002,0.007,0.0017,0.0012,0.0008,0.0012,0.009,0.0093,0.0062,0.0062,0.0062,0,0,-0.0111,-0.0112,-0.0116,-0.0123,-0.0122,-0.0138,-0.0116,-0.0122,-0.0134,-0.0086,-0.0092,-0.0064,-0.0028,-0.0021,-0.0012,0.0001,0.0039,0.0007,0.0003,0.0009,0.009,0.0093,0.0096,0.0061,0.0061,0.0061,0,0,-0.0136,-0.0131,-0.0148,-0.0153,-0.0154,-0.0153,-0.0155,-0.0154,-0.0152,-0.015,-0.0121,-0.0095,-0.0072,-0.0049,-0.0032,-0.0048,0.0009,-0.0048,-0.0073,0.0002,0.0006,0.001,0.006,0.0069,-0.0049,-0.0049,-0.0049,0,-0.0147,-0.0168,-0.0156,-0.0175,-0.0183,-0.0162,-0.0185,-0.0183,-0.0176,-0.0171,-0.0159,-0.0112,-0.0084,-0.0061,-0.0074,-0.0059,-0.0012,-0.0056,-0.0003,0.0002,0.0007,0.0058,0.0069,-0.0052,-0.0052,-0.0052,-0.0051,0,-0.0184,-0.0203,-0.0213,-0.023,-0.0237,-0.0252,-0.0246,-0.0251,-0.024,-0.023,-0.0207,-0.0163,-0.0133,-0.0126,-0.0107,-0.0068,-0.0047,-0.0019,0.0012,0.0007,0.006,0.0072,-0.0057,-0.0056,-0.0055,-0.0054,0,0,-0.021,-0.0236,-0.0241,-0.0263,-0.0267,-0.0282,-0.0294,-0.0301,-0.0305,-0.028,-0.0269,-0.0236,-0.02,-0.0178,-0.0143,-0.0082,-0.0018,-0.0043,-0.0038,0.0006,0.0137,0.0112,0.0124,0.0024,0.0026,0.0028,0.0153,0,-0.0247,-0.0295,-0.0296,-0.0344,-0.037,-0.0357,-0.0374,-0.037,-0.0353,-0.0337,-0.0274,-0.0251,-0.0223,-0.0204,-0.014,-0.0039,0.0015,-0.0056,0.0137,0.0143,0.0122,0.0137,0.0035,0.0163,0.0166,0.0168,0.0169,0,-0.0289,-0.0317,-0.0367,-0.0407,-0.0416,-0.0439,-0.0453,-0.0464,-0.0427,-0.0407,-0.0357,-0.0305,-0.0224,-0.0193,-0.0021,-0.0065,0.0022,0.0102,0.011,0.0122,0.0142,0.0176,0.0193,0.0191,0.0189,0.0188,0.0186,0,-0.032,-0.0371,-0.0414,-0.0427,-0.0462,-0.0483,-0.0498,-0.0485,-0.0492,-0.0442,-0.0424,-0.032,-0.0253,-0.0123,0.0026,0.0011,0.0232,0.0235,0.0291,0.029,0.0304,0.0299,0.0355,0.0355,0.0355,0.0354,0.0354,0,-0.0362,-0.0402,-0.0435,-0.0461,-0.0518,-0.0522,-0.0562,-0.0561,-0.0539,-0.0534,-0.046,-0.0405,-0.0226,-0.0087,0.0036,0.0207,0.0244,0.0293,0.0328,0.0269,0.0259,0.0312,0.0306,0.0359,0.0358,0.0357,0.0356,0,-0.0395,-0.0414,-0.0474,-0.0519,-0.0537,-0.0577,-0.0618,-0.0636,-0.0612,-0.0594,-0.0577,-0.0441,-0.0246,-0.0076,0.0162,0.0219,0.0383,0.0428,0.0346,0.0373,0.0382,0.037,0.0497,0.0498,0.0498,0.0498,0.0498,0,-0.0418,-0.0449,-0.0517,-0.0555,-0.0582,-0.0635,-0.0668,-0.0673,-0.0682,-0.0608,-0.059,-0.041,-0.0302,0.0025,0.0196,0.0428,0.0446,0.0489,0.0431,0.0379,0.0401,0.0388,0.0377,0.0499,0.0499,0.0499,0.0499,0,-0.046,-0.0481,-0.0525,-0.06,-0.0651,-0.0709,-0.075,-0.076,-0.0743,-0.0719,-0.0576,-0.042,-0.0195,0.0046,0.0229,0.0387,0.0438,0.0492,0.0491,0.0438,0.0383,0.0401,0.0389,0.05,0.05,0.05,0.05,0,-0.0484,-0.0523,-0.0574,-0.0639,-0.071,-0.076,-0.0781,-0.0762,-0.0756,-0.0672,-0.0606,-0.0374,-0.0222,0.0027,0.02,0.0353,0.0368,0.0354,0.0361,0.0362,0.0272,0.0179,0.0272,0,0,0,0,0,-0.0501,-0.0542,-0.0608,-0.068,-0.0749,-0.0783,-0.0824,-0.0828,-0.0803,-0.0708,-0.066,-0.0447,-0.0167,-0.0022,0.0133,0.0177,0.037,0.0351,0.0351,0.0505,0.0504,0.0419,0,0,0,0,0,0,-0.0514,-0.0574,-0.0606,-0.0695,-0.0745,-0.0816,-0.0841,-0.0823,-0.076,-0.0702,-0.0519,-0.0453,-0.0143,-0.0227,0.0136,0.0181,0.0182,0.0495,0.0496,0.0506,0.0505,0.0504,0.0416,0,0,0,0,0]}]]